User: anonymous   Login
Location: Melara
(45.0500°N, 11.1833°E)
Time: 09:55:52
(UTC+00:00)
Language:

Resurs 1-4 Rocket - Orbit

View from above orbital plane
View from above orbital plane
View from above satellite
View from above satellite

Ground track
Ground track

The orbit data is extracted from the following two-line orbital elements,

1 25400U 98043G   22224.78887671  .00000002  00000-0  19517-4 0  9998
2 25400  98.6731 160.2993 0009431 199.1510 160.9316 14.25523053253040
Epoch (UTC): 12 August 2022 18:55:58
Eccentricity: 0.0009431
inclination: 98.6731°
perigee height: 800 km
apogee height: 813 km
right ascension of ascending node: 160.2993°
argument of perigee: 199.1510°
revolutions per day: 14.25523053
mean anomaly at epoch: 160.9316°
orbit number at epoch: 25304

The dashed part of the orbit path shows where the satellite is in the earth's shadow,  

DLR